Location: Foulognes
(49.1413°N, 0.8183°W)
Time: 16:25:53
(UTC+00:00)

Cosmos 921 Rocket - Pass Details

Date: 21 October 2019
Orbit: 572 x 631 km, 75.8° (Epoch: 14 November)

Event Time Altitude Azimuth Distance (km) Brightness Sun altitude
Rises 17:44:37 0° 203° (SSW) 2,907 7.0 -7.6°
Reaches altitude 10° 17:46:53 10° 204° (SSW) 2,000 6.1 -8.0°
Maximum altitude 17:51:21 77° 291° (WNW) 646 3.3 -8.7°
Drops below altitude 10° 17:55:49 10° 18° (NNE) 1,989 5.4 -9.4°
Sets 17:58:03 0° 20° (NNE) 2,889 6.2 -9.8°
